Date String (YYYY-MM-DD hh:mm:ss) UTC,Instrument flags,Ambient pressure (hPa),Sample flow (lpm),Bypass flow (lpm),Sample temperature (°C),Ambient temperature (°C),ASC tube jacket temperature (°C),LED temperature (°C),Box temperature (°C),Sample RH (%),Span deviation,Mass concentration (μg/m³),Mass concentration (μg/m³),Mass concentration (μg/m³)
DateTimeUTC,F1_M11,P_M11,Q1_M11,Q2_M11,T1_M11,T2_M11,T3_M11,T4_M11,T5_M11,U1_M11,ZSPAN_M11,X0_M11,X2_M11,X1_M11
2022-10-07 21:00:00,,0836.7,5.00,0.00,26.7,25.4,00.0,35.4,28.6,22.4,-001.2,0017.35,0008.95,0007.74
2022-10-07 21:01:00,,0836.9,5.00,0.00,26.7,25.4,00.0,35.4,28.6,22.3,-001.0,0017.85,0008.87,0007.69
2022-10-07 21:02:00,,0836.9,5.00,0.00,26.7,25.4,00.0,35.4,28.6,22.3,-000.9,0018.13,0008.92,0007.67
2022-10-07 21:03:00,,0836.9,5.00,0.00,26.7,25.4,00.0,35.4,28.6,22.3,-000.9,0017.49,0008.92,0007.68
2022-10-07 21:04:00,,0836.8,5.00,0.00,26.7,25.4,00.0,35.4,28.6,22.0,-000.5,0017.50,0008.92,0007.67
2022-10-07 21:05:00,,0836.8,5.00,0.00,26.7,25.4,00.0,35.4,28.6,22.2,-000.4,0017.23,0008.91,0007.65
2022-10-07 21:06:00,,0836.7,5.01,0.00,26.7,25.4,00.0,35.5,28.7,22.3,-000.6,0017.25,0008.92,0007.63
2022-10-07 21:07:00,,0836.8,4.99,0.00,26.7,25.4,00.0,35.5,28.7,21.8,-001.0,0017.09,0008.87,0007.59
2022-10-07 21:08:00,,0836.8,4.99,0.00,26.7,25.4,00.0,35.5,28.7,21.6,-001.3,0016.35,0008.84,0007.56
2022-10-07 21:09:00,,0836.8,5.01,0.00,26.7,25.4,00.0,35.5,28.7,21.7,-001.2,0016.16,0008.79,0007.55
2022-10-07 21:10:00,,0836.8,5.00,0.00,26.8,25.4,00.0,35.5,28.7,21.9,-000.9,0015.79,0008.74,0007.52
2022-10-07 21:11:00,,0836.8,5.00,0.00,26.8,25.4,00.0,35.5,28.7,22.0,-001.2,0015.51,0008.70,0007.48
2022-10-07 21:12:00,,0836.8,5.00,0.00,26.8,25.5,00.0,35.5,28.7,22.1,-001.0,0015.27,0008.73,0007.47
2022-10-07 21:13:00,,0836.8,5.01,0.00,26.8,25.5,00.0,35.5,28.7,22.0,-001.4,0015.34,0008.70,0007.46
2022-10-07 21:14:00,,0836.9,5.00,0.00,26.8,25.5,00.0,35.5,28.7,22.1,-001.2,0016.15,0008.67,0007.46
2022-10-07 21:15:00,,0836.9,5.00,0.00,26.8,25.5,00.0,35.5,28.7,22.0,-001.5,0016.39,0008.67,0007.45
2022-10-07 21:16:00,,0836.9,4.99,0.00,26.8,25.5,00.0,35.5,28.7,22.1,-001.3,0016.31,0008.70,0007.48
2022-10-07 21:17:00,,0837.0,5.02,0.00,26.8,25.5,00.0,35.5,28.7,22.0,-001.3,0016.67,0008.72,0007.49
2022-10-07 21:18:00,,0837.0,4.99,0.00,26.8,25.5,00.0,35.5,28.7,21.9,-000.7,0017.10,0008.78,0007.52
2022-10-07 21:19:00,,0837.0,4.99,0.00,26.8,25.5,00.0,35.5,28.7,22.0,-000.5,0016.92,0008.81,0007.54
2022-10-07 21:20:00,,0836.9,5.02,0.00,26.8,25.5,00.0,35.5,28.7,22.1,-000.8,0016.91,0008.83,0007.55
2022-10-07 21:21:00,,0837.0,4.99,0.00,26.8,25.4,00.0,35.5,28.7,21.8,-000.9,0016.79,0008.80,0007.55
2022-10-07 21:22:00,,0837.0,5.00,0.00,26.8,25.4,00.0,35.5,28.7,21.7,-001.0,0017.09,0008.80,0007.57
2022-10-07 21:23:00,,0836.9,5.02,0.00,26.8,25.4,00.0,35.5,28.7,21.8,-001.0,0016.85,0008.80,0007.59
2022-10-07 21:24:00,,0836.9,4.99,0.00,26.8,25.4,00.0,35.5,28.7,21.9,-000.7,0016.47,0008.78,0007.59
2022-10-07 21:25:00,,0836.9,5.00,0.00,26.8,25.4,00.0,35.5,28.7,22.1,-000.9,0015.85,0008.72,0007.57
2022-10-07 21:26:00,,0836.8,5.01,0.00,26.8,25.4,00.0,35.5,28.7,22.1,-001.0,0015.23,0008.67,0007.53
2022-10-07 21:27:00,,0836.8,4.99,0.00,26.8,25.4,00.0,35.5,28.7,22.2,-001.3,0015.18,0008.62,0007.49
2022-10-07 21:28:00,,0836.8,4.99,0.00,26.8,25.3,00.0,35.5,28.7,22.2,-001.5,0014.43,0008.53,0007.46
2022-10-07 21:29:00,,0836.7,5.02,0.00,26.8,25.3,00.0,35.5,28.7,22.2,-001.7,0013.95,0008.46,0007.43
2022-10-07 21:30:00,,0836.6,5.00,0.00,26.8,25.3,00.0,35.5,28.7,22.1,-001.7,0014.11,0008.41,0007.39
2022-10-07 21:31:00,,0836.6,5.01,0.00,26.8,25.4,00.0,35.5,28.7,22.1,-001.8,0014.01,0008.35,0007.35
2022-10-07 21:32:00,,0836.6,5.00,0.00,26.8,25.4,00.0,35.6,28.7,22.0,-001.6,0014.01,0008.35,0007.33
2022-10-07 21:33:00,,0836.6,4.99,0.00,26.8,25.4,00.0,35.6,28.7,22.2,-001.6,0013.69,0008.31,0007.28
2022-10-07 21:34:00,,0836.6,5.00,0.00,26.8,25.4,00.0,35.6,28.7,22.3,-001.9,0013.90,0008.23,0007.23
2022-10-07 21:35:00,,0836.5,5.02,0.00,26.8,25.4,00.0,35.6,28.7,22.1,-002.0,0013.82,0008.16,0007.20
2022-10-07 21:36:00,,0836.5,4.99,0.00,26.8,25.4,00.0,35.6,28.7,22.3,-002.0,0013.51,0008.16,0007.18
2022-10-07 21:37:00,,0836.5,5.00,0.00,26.8,25.4,00.0,35.6,28.7,22.2,-002.2,0013.29,0008.15,0007.18
2022-10-07 21:38:00,,0836.5,5.01,0.00,26.8,25.4,00.0,35.6,28.7,22.2,-002.1,0013.45,0008.13,0007.18
2022-10-07 21:39:00,,0836.5,5.00,0.00,26.8,25.5,00.0,35.6,28.8,22.1,-002.1,0013.94,0008.12,0007.17
2022-10-07 21:40:00,,0836.5,5.00,0.00,26.8,25.5,00.0,35.6,28.8,22.1,-002.1,0013.89,0008.12,0007.17
2022-10-07 21:41:00,,0836.5,5.01,0.00,26.8,25.5,00.0,35.6,28.8,22.1,-002.2,0013.46,0008.16,0007.19
2022-10-07 21:42:00,,0836.6,5.00,0.00,26.8,25.5,00.0,35.6,28.8,22.1,-002.1,0013.50,0008.18,0007.21
2022-10-07 21:43:00,,0836.6,5.00,0.00,26.8,25.5,00.0,35.6,28.8,22.0,-002.2,0013.71,0008.19,0007.23
2022-10-07 21:44:00,,0836.7,5.01,0.00,26.8,25.5,00.0,35.6,28.8,21.9,-002.2,0013.74,0008.21,0007.24
2022-10-07 21:45:00,,0836.9,5.00,0.00,26.9,25.5,00.0,35.6,28.8,22.0,-002.2,0013.45,0008.22,0007.26
2022-10-07 21:46:00,,0836.9,4.99,0.00,26.9,25.5,00.0,35.6,28.8,22.3,-002.3,0013.34,0008.26,0007.26
2022-10-07 21:47:00,,0836.9,5.00,0.00,26.9,25.5,00.0,35.6,28.8,22.1,-002.5,0013.21,0008.24,0007.28
2022-10-07 21:48:00,,0836.9,5.01,0.00,26.9,25.5,00.0,35.6,28.8,21.9,-002.3,0013.40,0008.23,0007.28
2022-10-07 21:49:00,,0836.9,5.00,0.00,26.9,25.5,00.0,35.6,28.8,21.7,-002.5,0013.50,0008.24,0007.29
2022-10-07 21:50:00,,0836.9,4.99,0.00,26.9,25.5,00.0,35.6,28.8,21.8,-002.4,0013.13,0008.26,0007.30
2022-10-07 21:51:00,,0836.9,4.99,0.00,26.9,25.5,00.0,35.6,28.8,22.0,-002.2,0013.17,0008.24,0007.30
2022-10-07 21:52:00,,0836.8,5.01,0.00,26.9,25.5,00.0,35.6,28.8,21.9,-002.4,0013.06,0008.20,0007.30
2022-10-07 21:53:00,,0836.9,4.99,0.00,26.9,25.5,00.0,35.6,28.8,21.9,-002.5,0013.03,0008.20,0007.30
2022-10-07 21:54:00,,0836.8,5.00,0.00,26.9,25.5,00.0,35.6,28.8,21.8,-002.6,0012.69,0008.14,0007.29
2022-10-07 21:55:00,,0836.9,5.00,0.00,26.9,25.5,00.0,35.6,28.8,21.9,-002.7,0012.94,0008.18,0007.33
2022-10-07 21:56:00,,0836.9,5.01,0.00,26.9,25.5,00.0,35.6,28.8,22.0,-002.7,0012.91,0008.19,0007.33
2022-10-07 21:57:00,,0836.9,4.99,0.00,26.9,25.5,00.0,35.6,28.8,22.2,-002.7,0012.95,0008.21,0007.35
2022-10-07 21:58:00,,0836.8,5.00,0.00,26.9,25.5,00.0,35.6,28.8,22.2,-002.4,0013.13,0008.24,0007.35
2022-10-07 21:59:00,,0836.8,5.01,0.00,26.9,25.5,00.0,35.6,28.8,22.2,-002.5,0013.63,0008.28,0007.37
